Location: Berg
(47.2344°N, 9.5296°E)
Time: 23:08:45
(UTC+00:00)

N. Korean satellite - Pass Details

Date: 26 September 2021
Orbit: 450 x 495 km, 97.3° (Epoch: 25 October)

Event Time Altitude Azimuth Distance (km) Brightness Sun altitude
Rises 04:36:21 0° 14° (NNE) 2,529 10.5 -7.2°
Reaches altitude 10° 04:38:25 10° 17° (NNE) 1,654 9.6 -6.9°
Maximum altitude 04:41:57 69° 101° (E) 519 7.0 -6.3°
Drops below altitude 10° 04:45:31 10° 186° (S) 1,665 9.2 -5.7°
Sets 04:47:36 0° 189° (S) 2,547 10.1 -5.3°
